Location: Franzen
(48.6167°N, 15.3833°E)
Time: 07:31:09
(UTC+00:00)

A-11 Canister half - Pass Details

Date: 29 July 2021
Orbit: 1515 x 1685 km, 47.2° (Epoch: 21 September)

Event Time Altitude Azimuth Distance (km) Brightness Sun altitude
Rises 13:55:59 0° 167° (SSE) 4,765 11.7 44.4°
Reaches altitude 10° 14:02:08 10° 138° (SE) 3,832 11.1 43.5°
Maximum altitude 14:04:56 12° 121° (ESE) 3,731 10.9 43.0°
Drops below altitude 10° 14:07:45 10° 104° (ESE) 3,876 10.9 42.6°
Sets 14:14:02 0° 75° (ENE) 4,906 11.2 41.6°
